Snowfall_Accumulation
0.0 0.0 0.0 0.0 0.0 0.0 0.0 0.0 0.1 0.1 0.0 0.0 0.0 0.0 0.0 0.0 0.0 0.0 0.0 0.0 0.0 0.0 0.0 0.0 0.0 0.0 0.0 0.0 0.0 0.0 0.0 0.0 0.0 0.0 0.0 0.0 0.0 0.0
0.0 0.0 0.0 0.0 0.0 0.0 0.0 0.0 0.0 0.1 0.2 0.0 0.0 0.0 0.0 0.0 0.0 0.0 0.0 0.0 0.0 0.0 0.0 0.0 0.0 0.0 0.0 0.0 0.0 0.0 0.0 0.0 0.0 0.0 0.0 0.0 0.0 0.0
0.0 0.0 0.0 0.0 0.0 0.0 0.0 0.0 0.0 0.1 0.3 0.0 0.0 0.1 0.0 0.0 0.0 0.0 0.0 0.0 0.0 0.1 0.1 0.1 0.1 0.1 0.1 0.1 0.0 0.0 0.0 0.0 0.0 0.0 0.0 0.0 0.0 0.0
0.0 0.0 0.0 0.0 0.0 0.0 0.0 0.0 0.1 0.1 0.5 0.8 0.6 0.5 0.4 0.2 0.2 0.2 0.1 0.1 0.1 0.1 0.1 0.2 0.2 0.2 0.2 0.2 0.1 0.1 0.1 0.1 0.0 0.0 0.0 0.0 0.0 0.0
0.0 0.0 0.1 0.1 0.1 0.1 0.1 0.1 0.3 0.4 0.9 1.3 0.6 0.3 0.3 0.2 0.2 0.1 0.1 0.1 0.0 0.0 0.1 0.1 0.2 0.3 0.4 0.4 0.3 0.2 0.2 0.1 0.1 0.1 0.1 0.0 0.0 0.0
0.1 0.1 0.1 0.1 0.3 0.5 0.7 0.7 1.3 1.2 1.1 1.4 1.5 1.0 0.7 0.5 0.4 0.5 0.4 0.2 0.2 0.1 0.0 0.1 0.1 0.3 0.3 0.2 0.3 0.3 0.3 0.4 0.4 0.4 0.3 0.2 0.2 0.1
0.2 0.3 0.4 0.4 0.3 0.5 0.9 1.3 1.3 1.6 2.2 2.7 2.5 1.7 1.0 0.6 0.6 0.5 0.6 0.4 0.3 0.2 0.2 0.1 0.2 0.2 0.1 0.1 0.1 0.0 0.2 0.4 0.5 0.5 0.5 0.5 0.3 0.2
0.7 0.7 0.9 0.8 0.5 0.5 0.6 0.9 1.7 2.8 3.5 3.8 3.3 2.4 1.3 0.8 0.6 0.9 1.3 1.8 1.4 0.2 0.4 0.2 0.1 0.1 0.1 0.1 0.1 0.2 0.5 0.7 0.8 0.8 0.7 0.7 0.5 0.3
1.1 1.1 1.0 0.9 0.8 0.6 0.6 1.0 1.5 2.1 2.6 2.9 2.6 1.6 1.3 1.0 1.7 2.6 2.7 2.9 2.1 0.6 0.5 0.6 0.1 0.2 0.1 0.1 0.2 0.2 0.4 0.5 0.7 0.8 0.8 0.7 0.6 0.4
0.8 0.7 0.7 0.5 0.5 0.9 1.4 1.9 1.5 1.1 1.0 0.9 1.1 1.0 1.0 1.1 2.2 3.6 3.3 2.3 0.9 0.3 0.3 1.3 0.5 0.3 0.2 0.1 0.1 0.1 0.2 0.4 0.6 0.8 0.8 0.8 0.7 0.6
0.6 0.5 0.6 0.6 0.7 1.9 2.7 2.7 1.5 0.6 0.4 0.5 0.9 0.9 0.9 0.8 0.9 2.3 3.3 4.4 3.2 0.8 0.5 1.1 0.7 0.6 0.2 0.1 0.0 0.2 0.4 0.5 0.6 0.8 0.8 0.8 0.9 0.7
0.5 0.4 0.5 0.7 1.4 2.6 2.9 2.7 1.7 0.8 1.1 0.9 0.5 0.3 0.3 0.1 0.4 1.9 5.6 9.4 7.2 3.6 0.5 1.5 1.8 2.4 3.5 0.6 0.6 0.6 0.4 0.5 0.6 0.6 0.7 0.8 0.8 1.1
0.9 0.4 0.2 1.0 2.1 2.5 2.1 1.2 1.3 2.0 1.6 0.8 0.5 0.3 0.3 0.3 0.4 0.8 2.7 8.5 11.2 7.1 1.6 4.6 6.2 4.0 6.2 3.6 1.1 0.5 0.6 1.0 1.3 0.9 0.7 0.8 0.9 1.6
1.3 0.7 0.7 1.6 1.8 1.2 0.6 0.7 1.4 1.5 0.9 1.0 1.0 0.9 1.1 0.9 1.0 1.1 1.3 2.5 5.3 6.7 4.0 7.2 11.4 8.3 10.4 7.7 3.4 1.5 1.1 1.8 3.2 3.0 1.9 1.4 1.0 1.0
1.2 1.4 1.6 1.3 0.8 0.5 0.5 0.8 1.0 1.4 2.1 3.0 3.0 2.4 1.7 1.8 1.6 2.2 2.3 2.8 3.6 5.0 5.6 6.5 9.6 10.4 11.5 10.8 7.2 5.2 5.6 3.2 3.2 5.2 4.9 3.3 2.2 1.3
1.4 1.5 1.1 0.5 0.5 0.6 0.8 1.1 1.4 1.9 3.3 4.3 3.9 3.1 2.8 3.3 3.7 5.0 6.2 6.5 7.1 6.4 5.7 5.3 6.5 9.3 10.1 7.5 8.2 7.7 7.8 9.8 7.3 6.8 5.5 4.2 2.5 1.9
2.0 1.0 0.7 1.1 1.0 1.2 1.3 1.3 1.8 2.2 2.9 3.5 4.1 4.4 4.2 4.9 6.0 6.9 8.6 9.5 9.9 8.5 7.1 5.3 4.3 4.8 6.2 7.1 7.6 6.7 7.5 9.8 7.4 6.4 5.0 5.4 3.5 1.5
1.4 1.4 1.4 1.7 1.9 1.8 2.0 2.3 2.4 2.9 3.5 4.7 5.1 5.6 6.6 7.2 8.2 8.6 10.0 11.2 10.6 8.6 7.1 5.5 4.6 4.3 3.7 3.8 5.3 7.6 8.8 10.0 8.0 4.2 4.3 6.5 5.3 2.5
1.2 1.9 2.1 2.4 2.4 2.4 2.8 3.3 3.6 3.7 5.1 6.7 7.3 7.9 8.9 9.2 9.9 10.6 10.8 10.6 9.4 7.6 6.4 5.4 6.0 8.9 9.8 6.7 4.1 6.1 10.8 11.2 7.5 5.9 4.9 5.4 6.2 3.3
1.4 1.9 2.3 2.6 2.8 3.2 3.5 4.5 5.1 5.3 6.3 7.5 8.2 8.8 10.2 11.3 11.5 11.1 10.6 10.0 9.2 7.3 5.3 4.1 5.1 9.0 13.8 12.4 9.6 7.8 6.3 9.9 10.9 9.3 5.4 3.0 2.6 1.8
1.7 1.6 1.7 2.2 3.0 3.4 4.0 4.9 6.0 7.2 8.4 10.1 10.5 10.8 11.3 12.9 13.1 11.0 9.7 8.4 7.6 6.7 5.7 4.2 3.9 5.6 8.9 10.6 9.9 8.5 8.6 5.4 6.4 10.2 9.9 8.7 7.3 5.7
2.1 2.2 1.9 2.0 2.8 3.6 4.4 5.3 6.8 7.8 9.1 10.0 10.6 10.8 11.2 12.3 12.0 9.8 8.0 7.4 6.7 6.2 5.6 4.3 3.6 4.4 6.8 9.6 9.3 7.7 7.7 6.7 4.0 2.7 3.9 7.5 13.8 15.3
2.7 2.9 2.8 2.8 3.5 4.1 5.0 6.0 7.3 8.5 9.2 10.8 11.2 10.8 10.4 9.8 8.1 7.4 7.0 7.0 7.0 6.3 5.9 5.3 4.4 4.3 5.2 6.7 7.7 7.3 6.5 5.8 5.5 5.6 6.5 2.9 3.2 3.7